Kalispell, MT

6:33 AM MDT on September 20, 2017 (GMT -0600)
Glacier Park International

Weather History for KGPI - May, 2014

Change the Weather History Date:

Tuesday, May 13, 2014

  Actual Average Record
Temperature  
Mean Temperature 49 °F 51 °F  
Max Temperature 69 °F 65 °F 87 °F (1993)
Min Temperature 29 °F 38 °F 24 °F (2004)
Degree Days  
Heating Degree Days 16 14  
Month to date heating degree days 231 205  
Since 1 July heating degree days 7781 7616  
Cooling Degree Days 0 0  
Month to date cooling degree days 0 0  
Year to date cooling degree days 0 0  
Moisture  
Dew Point 31 °F    
Average Humidity 56    
Maximum Humidity 89    
Minimum Humidity 22    
Precipitation  
Precipitation 0.00 in 0.06 in 1.29 in (1900)
Month to date precipitation 0.72 0.66  
Year to date precipitation 6.77 5.29  
Snow  
Snow 0.00 in - - ()
Month to date snowfall T  
Year to date snowfall 38.2  
Since 1 July snowfall 71.7  
Snow Depth 0.00 in    
Sea Level Pressure  
Sea Level Pressure 30.43 in    
Wind  
Wind Speed 4 mph (South)    
Max Wind Speed 13 mph    
Max Gust Speed 17 mph    
Visibility 10 miles    
Events      
T = Trace of Precipitation, MM = Missing Value Source: NWS Daily Summary

Daily Weather History Graph

Daily Weather History Graph

Search for Another Location

Airport or City:

Trip Planner

Search our weather history database for the weather conditions in past years. The results will help you decide how hot, cold, wet, or windy it might be!

Date:

Astronomy

May. 13, 2014 Rise Set
Actual Time 5:59 AM MDT 9:07 PM MDT
Civil Twilight 5:22 AM MDT 9:45 PM MDT
Nautical Twilight 4:34 AM MDT 10:33 PM MDT
Astronomical Twilight 3:34 AM MDT 11:34 PM MDT
Moon 8:08 PM MDT (5/13) 5:26 AM MDT (5/13)
Length of Visible Light 16h 22m
Length of Day
15h 08m
Waxing Gibbous, 99% of the Moon is Illuminated
May 13
Waxing Gibbous
May 14
Full
May 21
Last Quarter
May 28
New
Jun 5
First Quarter

Hourly Weather History & Observations

Time (MDT) Temp. Windchill Dew Point Humidity Pressure Visibility Wind Dir Wind Speed Gust Speed Precip Events Conditions
12:55 AM 37.0 °F - 32.0 °F 82% 30.45 in 10.0 mi Calm Calm - N/A   Clear
1:55 AM 33.1 °F - 30.0 °F 89% 30.46 in 10.0 mi Calm Calm - N/A   Clear
2:55 AM 32.0 °F - 28.9 °F 88% 30.46 in 10.0 mi Calm Calm - N/A   Clear
3:55 AM 34.0 °F - 28.9 °F 82% 30.46 in 10.0 mi Calm Calm - N/A   Clear
4:55 AM 32.0 °F 26.4 °F 28.9 °F 88% 30.47 in 10.0 mi WNW 5.8 mph - N/A   Clear
5:55 AM 30.0 °F - 27.0 °F 88% 30.49 in 10.0 mi Calm Calm - N/A   Clear
6:55 AM 32.0 °F 28.7 °F 28.4 °F 87% 30.45 in 10.0 mi WNW 3.5 mph - N/A   Clear
7:55 AM 43.0 °F - 33.1 °F 68% 30.49 in 10.0 mi Calm Calm - N/A   Clear
8:55 AM 46.0 °F 43.1 °F 33.1 °F 61% 30.50 in 10.0 mi East 5.8 mph - N/A   Clear
9:55 AM 51.8 °F - 30.2 °F 44% 30.47 in 10.0 mi NE 5.8 mph - N/A   Clear
10:55 AM 54.0 °F - 30.9 °F 41% 30.49 in 10.0 mi Variable 4.6 mph - N/A   Clear
11:55 AM 57.0 °F - 32.0 °F 39% 30.48 in 10.0 mi Calm Calm - N/A   Clear
12:55 PM 61.0 °F - 28.0 °F 29% 30.45 in 10.0 mi Calm Calm - N/A   Clear
1:55 PM 64.0 °F - 28.0 °F 26% 30.43 in 10.0 mi Variable 5.8 mph - N/A   Clear
2:55 PM 64.9 °F - 28.0 °F 25% 30.42 in 10.0 mi Variable 6.9 mph - N/A   Clear
3:55 PM 66.9 °F - 27.0 °F 22% 30.39 in 10.0 mi Variable 4.6 mph - N/A   Clear
4:55 PM 66.9 °F - 28.9 °F 24% 30.37 in 10.0 mi South 11.5 mph 16.1 mph N/A   Partly Cloudy
5:55 PM 66.2 °F - 28.4 °F 24% 30.35 in 10.0 mi South 6.9 mph - N/A   Partly Cloudy
6:55 PM 64.9 °F - 30.9 °F 28% 30.37 in 10.0 mi South 8.1 mph - N/A   Partly Cloudy
7:55 PM 61.0 °F - 35.1 °F 38% 30.35 in 10.0 mi South 5.8 mph - N/A   Mostly Cloudy
8:55 PM 57.0 °F - 34.0 °F 42% 30.35 in 10.0 mi SSE 8.1 mph - N/A   Partly Cloudy
9:55 PM 51.1 °F - 33.1 °F 50% 30.35 in 10.0 mi SW 3.5 mph - N/A   Clear
10:55 PM 44.1 °F 41.5 °F 36.0 °F 73% 30.38 in 10.0 mi NNE 4.6 mph - N/A   Mostly Cloudy
11:55 PM 43.0 °F 40.3 °F 35.1 °F 74% 30.38 in 10.0 mi North 4.6 mph - N/A   Partly Cloudy